Regional Weather Roundup
Issued by NWS State College, PA

Home | Current Version | Previous Version | Graphics & Text | Print | Product List | Glossary Off
Versions: 1 2 3 4 5 6 7 8 9 10 11 12 13 14 15 16 17 18 19 20 21 22 23 24 25 26 27 28 29 30 31 32 33 34 35 36 37 38 39 40 41 42 43 44 45 46 47 48 49 50

000
ASUS41 KCTP 041210
RWRCTP

REGIONAL WEATHER ROUNDUP
NATIONAL WEATHER SERVICE STATE COLLEGE PA
800 AM EDT TUE AUG 04 2015

Note: "fair" indicates few or no clouds below 12,000 feet with no
significant weather and/or obstructions to visibility.

* = STATION THAT DOES NOT REPORT PRECIPITATION /E.G. RAIN...SNOW...ETC/
    THUNDER OR FOG.

PAZ002>004-007>009-013>016-020>023-029>032-041300-
WESTERN PENNSYLVANIA

CITY           SKY/WX    TMP DP  RH WIND       PRES   REMARKS
ERIE           SUNNY     67  60  78 SW8       29.91R
MEADVILLE      SUNNY     63  58  83 SW6       29.95R
FRANKLIN*      MOSUNNY   63  57  82 SW7       29.96S
NEW CASTLE     FAIR      65  59  81 CALM      29.97R
BEAVER COUNTY  NOT AVBL
BUTLER*        SUNNY     63  61  94 W6        29.98R
PITTSBURGH INT MOSUNNY   64  59  83 W5        29.97R
PITTSBURGH     SUNNY     65  57  75 W9        29.97R
INDIANA*       CLOUDY    64  64 100 W6        30.00R FOG
LATROBE        SUNNY     66  66 100 CALM      29.98R
WASHINGTON CO* NOT AVBL
$$

PAZ004>006-010>012-017>019-024>028-033>037-041-042-045-046-049>053-041300-
CENTRAL PENNSYLVANIA

CITY           SKY/WX    TMP DP  RH WIND       PRES   REMARKS
BRADFORD       CLOUDY    60  59  96 VRB5      29.95R
DUBOIS         CLOUDY    63  60  90 W10       29.95R FOG
CLEARFIELD     MOSUNNY   65  61  87 SW7       29.95R
JOHNSTOWN      MOSUNNY   63  61  93 W7        29.98S FOG
ALTOONA        SUNNY     67  63  87 CALM      29.96S
STATE COLLEGE  SUNNY     64  63  94 SW3       29.92S
WILLIAMSPORT   SUNNY     69  62  78 W3        29.88S
SELINSGROVE    SUNNY     69  64  84 CALM      29.90F
FT INDIANTOWN  SUNNY     68  65  90 VRB3      29.89F
CAPITAL CITY   MOSUNNY   72  63  73 W7        29.90R
HARRISBURG     NOT AVBL
YORK           NOT AVBL
$$

PAZ038>040-043-044-047-048-054-055-060>062-067>071-041300-
EASTERN PENNSYLVANIA

CITY           SKY/WX    TMP DP  RH WIND       PRES   REMARKS
SCRANTON       SUNNY     71  64  78 SW7       29.88F
MOUNT POCONO   MOSUNNY   66  62  87 W9        29.92S
ALLENTOWN      MOSUNNY   68  66  93 CALM      29.88F
QUAKERTOWN*    PTSUNNY   66  66 100 CALM      29.89F
READING        SUNNY     70  66  87 CALM      29.88S
LANCASTER      SUNNY     71  67  87 CALM      29.90R
COATESVILLE    MOSUNNY   70  66  88 W5        29.91R
POTTSTOWN      MOSUNNY   69  68  96 CALM      29.90F
BLUE BELL      CLOUDY    70  70 100 CALM      29.87F
DOYLESTOWN     CLOUDY    67  67 100 CALM      29.88F
WILLOW GROVE   NOT AVBL
NORTH PHILA    CLOUDY    75  66  73 N3        29.87F
PHILADELPHIA   CLOUDY    77  69  76 SW8       29.87S
$$


USA.gov is the U.S. government's official web portal to all federal, state and local government web resources and services.